Time,TemperatureF,DewpointF,PressureIn,WindDirection,WindDirectionDegrees,WindSpeedMPH,WindSpeedGustMPH,Humidity,HourlyPrecipIn,Conditions,Clouds,dailyrainin,SolarRadiationWatts/m^2,SoftwareType,DateUTC
2013-06-20 00:01:00,49.2,45.2,30.21,NNE,25,0.0,1.2,86,0.00,FEW,OVC,0.00,0.0,WeatherDisplay:10.37,2013-06-20 04:01:00,
2013-06-20 00:06:00,49.1,45.1,30.21,NNE,25,0.0,1.2,86,0.00,SCT,OVC,0.00,0.0,WeatherDisplay:10.37,2013-06-20 04:06:00,
2013-06-20 00:11:00,49.1,45.1,30.21,NNE,25,0.0,0.0,86,0.00,SCT,OVC,0.00,0.0,WeatherDisplay:10.37,2013-06-20 04:11:00,
2013-06-20 00:16:00,49.1,45.1,30.21,NNE,25,0.0,1.0,86,0.00,SCT,OVC,0.00,0.0,WeatherDisplay:10.37,2013-06-20 04:16:00,
2013-06-20 00:21:00,49.1,45.1,30.21,NNE,25,0.0,1.0,86,0.00,SCT,OVC,0.00,0.0,WeatherDisplay:10.37,2013-06-20 04:21:00,
2013-06-20 00:26:00,49.0,45.0,30.21,NNE,25,0.0,0.0,86,0.00,SCT,OVC,0.00,0.0,WeatherDisplay:10.37,2013-06-20 04:26:00,
2013-06-20 00:31:00,49.1,45.1,30.21,NNE,25,0.0,0.0,86,0.00,SCT,OVC,0.00,0.0,WeatherDisplay:10.37,2013-06-20 04:31:00,
2013-06-20 00:36:00,49.0,45.0,30.21,NNE,25,0.0,0.0,86,0.00,SCT,OVC,0.00,0.0,WeatherDisplay:10.37,2013-06-20 04:36:00,
2013-06-20 00:41:00,49.0,45.0,30.21,NNE,25,0.0,0.0,86,0.00,SCT,OVC,0.00,0.0,WeatherDisplay:10.37,2013-06-20 04:41:00,
2013-06-20 00:46:00,48.9,44.9,30.21,NNE,25,0.0,0.0,86,0.00,SCT,OVC,0.00,0.0,WeatherDisplay:10.37,2013-06-20 04:46:00,
2013-06-20 00:51:00,48.9,44.9,30.22,NNE,25,0.0,1.2,86,0.00,SCT,OVC,0.00,0.0,WeatherDisplay:10.37,2013-06-20 04:51:00,
2013-06-20 00:56:00,48.8,44.8,30.21,NNE,25,0.0,0.0,86,0.00,SCT,OVC,0.00,0.0,WeatherDisplay:10.37,2013-06-20 04:56:00,
2013-06-20 01:01:00,48.8,44.8,30.21,NNE,25,0.0,1.2,86,0.00,SCT,OVC,0.00,0.0,WeatherDisplay:10.37,2013-06-20 05:01:00,
2013-06-20 01:06:00,48.7,44.7,30.21,NNE,25,0.0,1.2,86,0.00,SCT,OVC,0.00,0.0,WeatherDisplay:10.37,2013-06-20 05:06:00,
2013-06-20 01:11:00,48.7,44.7,30.21,NNE,25,0.1,1.2,86,0.00,SCT,OVC,0.00,0.0,WeatherDisplay:10.37,2013-06-20 05:11:00,
2013-06-20 01:16:00,48.6,44.6,30.21,NNE,25,0.0,0.0,86,0.00,SCT,OVC,0.00,0.0,WeatherDisplay:10.37,2013-06-20 05:16:00,
2013-06-20 01:21:00,48.6,44.6,30.21,NNE,25,0.0,0.0,86,0.00,SCT,OVC,0.00,0.0,WeatherDisplay:10.37,2013-06-20 05:21:00,
2013-06-20 01:26:00,48.5,44.5,30.21,NNE,25,0.0,0.0,86,0.00,SCT,OVC,0.00,0.0,WeatherDisplay:10.37,2013-06-20 05:26:00,
2013-06-20 01:31:00,48.5,44.5,30.21,NNE,25,0.0,1.2,86,0.00,SCT,OVC,0.00,0.0,WeatherDisplay:10.37,2013-06-20 05:31:00,
2013-06-20 01:36:00,48.4,44.7,30.22,NNE,25,0.0,1.2,87,0.00,SCT,OVC,0.00,0.0,WeatherDisplay:10.37,2013-06-20 05:36:00,
2013-06-20 01:41:00,48.4,44.7,30.22,NNE,25,0.8,2.3,87,0.00,SCT,OVC,0.00,0.0,WeatherDisplay:10.37,2013-06-20 05:41:00,
2013-06-20 01:46:00,48.3,44.6,30.22,NNE,25,0.2,2.3,87,0.00,SCT,OVC,0.00,0.0,WeatherDisplay:10.37,2013-06-20 05:46:00,
2013-06-20 01:51:00,48.3,44.6,30.21,NNE,25,0.0,1.2,87,0.00,SCT,OVC,0.00,0.0,WeatherDisplay:10.37,2013-06-20 05:51:00,
2013-06-20 01:56:00,48.2,44.5,30.21,NNE,25,0.1,1.2,87,0.00,SCT,OVC,0.00,0.0,WeatherDisplay:10.37,2013-06-20 05:56:00,
2013-06-20 02:01:00,48.2,44.5,30.21,NNE,25,0.0,0.0,87,0.00,SCT,OVC,0.00,0.0,WeatherDisplay:10.37,2013-06-20 06:01:00,
2013-06-20 02:06:00,48.1,44.4,30.21,NNE,25,0.1,1.2,87,0.00,SCT,OVC,0.00,0.0,WeatherDisplay:10.37,2013-06-20 06:06:00,
2013-06-20 02:11:00,48.1,44.1,30.21,NNE,25,0.0,1.2,86,0.00,SCT,OVC,0.00,0.0,WeatherDisplay:10.37,2013-06-20 06:11:00,
2013-06-20 02:16:00,48.1,44.1,30.21,NNE,25,0.5,2.3,86,0.00,SCT,OVC,0.00,0.0,WeatherDisplay:10.37,2013-06-20 06:16:00,
2013-06-20 02:21:00,48.1,44.1,30.21,NNE,25,0.0,0.0,86,0.00,SCT,OVC,0.00,0.0,WeatherDisplay:10.37,2013-06-20 06:21:00,
2013-06-20 02:26:00,48.1,44.1,30.21,NNE,25,0.1,2.3,86,0.00,FEW,OVC,0.00,0.0,WeatherDisplay:10.37,2013-06-20 06:26:00,
2013-06-20 02:31:00,48.0,44.0,30.21,NNE,25,0.1,2.3,86,0.00,FEW,OVC,0.00,0.0,WeatherDisplay:10.37,2013-06-20 06:31:00,
2013-06-20 02:36:00,48.0,44.0,30.21,NNE,25,0.2,3.5,86,0.00,FEW,OVC,0.00,0.0,WeatherDisplay:10.37,2013-06-20 06:36:00,
2013-06-20 02:41:00,48.0,44.0,30.20,NNE,25,1.2,3.5,86,0.00,FEW,OVC,0.00,0.0,WeatherDisplay:10.37,2013-06-20 06:41:00,
2013-06-20 02:46:00,47.9,43.9,30.20,NNE,25,0.6,2.3,86,0.00,FEW,OVC,0.00,0.0,WeatherDisplay:10.37,2013-06-20 06:46:00,
2013-06-20 02:51:00,47.9,43.9,30.20,NNE,25,0.0,2.3,86,0.00,FEW,OVC,0.00,0.0,WeatherDisplay:10.37,2013-06-20 06:51:00,
2013-06-20 02:56:00,47.9,43.9,30.20,NNE,25,0.3,1.2,86,0.00,FEW,OVC,0.00,0.0,WeatherDisplay:10.37,2013-06-20 06:56:00,
2013-06-20 03:01:00,47.9,43.9,30.20,NNE,25,0.1,1.0,86,0.00,FEW,OVC,0.00,0.0,WeatherDisplay:10.37,2013-06-20 07:01:00,
2013-06-20 03:06:00,47.9,43.9,30.20,NNE,25,0.3,2.3,86,0.00,FEW,OVC,0.00,0.0,WeatherDisplay:10.37,2013-06-20 07:06:00,
2013-06-20 03:11:00,47.9,43.9,30.20,NNE,25,0.0,1.2,86,0.00,CLR,OVC,0.00,0.0,WeatherDisplay:10.37,2013-06-20 07:11:00,
2013-06-20 03:16:00,47.9,43.9,30.20,NNE,25,0.0,0.0,86,0.00,CLR,OVC,0.00,0.0,WeatherDisplay:10.37,2013-06-20 07:16:00,
2013-06-20 03:21:00,47.9,43.9,30.20,NNE,25,0.4,3.0,86,0.00,CLR,OVC,0.00,0.0,WeatherDisplay:10.37,2013-06-20 07:21:00,
2013-06-20 03:26:00,47.9,43.9,30.20,NNE,25,0.6,2.3,86,0.00,CLR,OVC,0.00,0.0,WeatherDisplay:10.37,2013-06-20 07:26:00,
2013-06-20 03:31:00,47.9,43.9,30.20,NNE,25,0.3,2.3,86,0.00,CLR,OVC,0.00,0.0,WeatherDisplay:10.37,2013-06-20 07:31:00,
2013-06-20 03:36:00,47.9,43.9,30.20,NNE,25,0.0,1.2,86,0.00,CLR,OVC,0.00,0.0,WeatherDisplay:10.37,2013-06-20 07:36:00,
2013-06-20 03:41:00,47.9,43.9,30.20,NNE,25,0.0,1.2,86,0.00,CLR,OVC,0.00,0.0,WeatherDisplay:10.37,2013-06-20 07:41:00,
2013-06-20 03:46:00,47.8,43.8,30.20,NNE,25,0.0,0.0,86,0.00,CLR,OVC,0.00,0.0,WeatherDisplay:10.37,2013-06-20 07:46:00,
2013-06-20 03:51:00,47.8,43.8,30.20,NNE,25,0.0,0.0,86,0.00,CLR,OVC,0.00,0.0,WeatherDisplay:10.37,2013-06-20 07:51:00,
2013-06-20 03:56:00,47.7,43.7,30.21,NNE,25,0.0,0.0,86,0.00,CLR,OVC,0.00,0.0,WeatherDisplay:10.37,2013-06-20 07:56:00,
2013-06-20 04:01:00,47.7,43.7,30.21,NNE,25,0.0,1.2,86,0.00,CLR,OVC,0.00,0.0,WeatherDisplay:10.37,2013-06-20 08:01:00,
2013-06-20 04:06:00,47.6,43.6,30.21,NNE,25,0.0,0.0,86,0.00,CLR,OVC,0.00,0.0,WeatherDisplay:10.37,2013-06-20 08:06:00,
2013-06-20 04:11:00,47.5,43.5,30.21,NNE,25,0.0,0.0,86,0.00,CLR,OVC,0.00,0.0,WeatherDisplay:10.37,2013-06-20 08:11:00,
2013-06-20 04:16:00,47.4,43.4,30.21,NNE,25,0.0,0.0,86,0.00,CLR,OVC,0.00,0.0,WeatherDisplay:10.37,2013-06-20 08:16:00,
2013-06-20 04:21:00,47.3,43.3,30.21,NNE,25,0.1,1.2,86,0.00,CLR,OVC,0.00,0.0,WeatherDisplay:10.37,2013-06-20 08:21:00,
2013-06-20 04:26:00,47.2,43.5,30.21,NNE,25,0.0,1.2,87,0.00,CLR,OVC,0.00,0.0,WeatherDisplay:10.37,2013-06-20 08:26:00,
2013-06-20 04:31:00,47.1,43.4,30.21,NNE,25,0.0,1.2,87,0.00,CLR,OVC,0.00,0.0,WeatherDisplay:10.37,2013-06-20 08:31:00,
2013-06-20 04:36:00,47.1,43.4,30.21,NNE,25,0.4,1.2,87,0.00,CLR,OVC,0.00,0.0,WeatherDisplay:10.37,2013-06-20 08:36:00,
2013-06-20 04:41:00,47.0,43.3,30.21,NNE,25,0.1,1.2,87,0.00,CLR,OVC,0.00,0.0,WeatherDisplay:10.37,2013-06-20 08:41:00,
2013-06-20 04:46:00,47.0,43.3,30.21,NNE,25,0.1,1.2,87,0.00,CLR,OVC,0.00,0.0,WeatherDisplay:10.37,2013-06-20 08:46:00,
2013-06-20 04:51:00,47.0,43.3,30.21,NNE,25,0.1,1.2,87,0.00,CLR,OVC,0.00,0.0,WeatherDisplay:10.37,2013-06-20 08:51:00,
2013-06-20 04:56:00,46.9,43.2,30.21,NNE,25,0.0,1.2,87,0.00,CLR,OVC,0.00,0.0,WeatherDisplay:10.37,2013-06-20 08:56:00,
2013-06-20 05:01:00,46.9,43.2,30.21,NNE,25,0.0,0.0,87,0.00,CLR,OVC,0.00,0.0,WeatherDisplay:10.37,2013-06-20 09:01:00,
2013-06-20 05:06:00,46.8,43.1,30.22,NNE,25,0.0,1.2,87,0.00,CLR,OVC,0.00,0.0,WeatherDisplay:10.37,2013-06-20 09:06:00,
2013-06-20 05:11:00,46.8,43.1,30.22,NNE,25,0.0,0.0,87,0.00,CLR,OVC,0.00,0.0,WeatherDisplay:10.37,2013-06-20 09:11:00,
2013-06-20 05:16:00,46.7,43.3,30.22,NNE,25,0.0,0.0,88,0.00,CLR,OVC,0.00,0.0,WeatherDisplay:10.37,2013-06-20 09:16:00,
2013-06-20 05:21:00,46.7,43.3,30.22,NNE,25,0.0,0.0,88,0.00,CLR,OVC,0.00,0.0,WeatherDisplay:10.37,2013-06-20 09:21:00,
2013-06-20 05:26:00,46.7,43.3,30.22,NNE,25,0.0,2.3,88,0.00,CLR,OVC,0.00,0.0,WeatherDisplay:10.37,2013-06-20 09:26:00,
2013-06-20 05:31:00,46.7,43.3,30.22,NNE,25,0.2,2.3,88,0.00,CLR,OVC,0.00,0.0,WeatherDisplay:10.37,2013-06-20 09:31:00,
2013-06-20 05:36:00,46.8,43.4,30.22,NNE,25,1.3,3.5,88,0.00,CLR,OVC,0.00,0.0,WeatherDisplay:10.37,2013-06-20 09:36:00,
2013-06-20 05:41:00,46.9,43.5,30.22,NNE,25,0.3,2.3,88,0.00,CLR,OVC,0.00,5.0,WeatherDisplay:10.37,2013-06-20 09:41:00,
2013-06-20 05:46:00,46.9,43.5,30.23,NNE,25,0.0,1.0,88,0.00,CLR,OVC,0.00,7.0,WeatherDisplay:10.37,2013-06-20 09:46:00,
2013-06-20 05:51:00,46.9,43.5,30.23,NNE,25,0.0,2.3,88,0.00,CLR,OVC,0.00,9.0,WeatherDisplay:10.37,2013-06-20 09:51:00,
2013-06-20 05:56:00,47.0,43.6,30.23,NNE,25,0.4,2.0,88,0.00,CLR,OVC,0.00,12.0,WeatherDisplay:10.37,2013-06-20 09:56:00,
2013-06-20 06:01:00,47.1,43.7,30.23,NNE,25,0.1,2.3,88,0.00,CLR,OVC,0.00,19.0,WeatherDisplay:10.37,2013-06-20 10:01:00,
2013-06-20 06:06:00,47.3,43.9,30.23,NNE,25,0.0,0.0,88,0.00,CLR,OVC,0.00,26.0,WeatherDisplay:10.37,2013-06-20 10:06:00,
2013-06-20 06:11:00,47.4,44.0,30.23,NNE,25,0.0,0.0,88,0.00,CLR,OVC,0.00,33.0,WeatherDisplay:10.37,2013-06-20 10:11:00,
2013-06-20 06:16:00,47.6,44.5,30.23,NNE,25,0.0,0.0,89,0.00,CLR,OVC,0.00,39.0,WeatherDisplay:10.37,2013-06-20 10:16:00,
2013-06-20 06:21:00,47.9,44.8,30.23,NNE,25,0.0,1.2,89,0.00,CLR,OVC,0.00,25.0,WeatherDisplay:10.37,2013-06-20 10:21:00,
2013-06-20 06:26:00,48.1,45.0,30.24,NNE,25,0.3,1.2,89,0.00,CLR,OVC,0.00,58.0,WeatherDisplay:10.37,2013-06-20 10:26:00,
2013-06-20 06:31:00,48.4,45.0,30.24,NNE,25,0.0,2.3,88,0.00,CLR,OVC,0.00,65.0,WeatherDisplay:10.37,2013-06-20 10:31:00,
2013-06-20 06:36:00,48.7,45.3,30.24,NNE,25,0.1,2.3,88,0.00,CLR,OVC,0.00,84.0,WeatherDisplay:10.37,2013-06-20 10:36:00,
2013-06-20 06:41:00,49.1,45.7,30.24,NNE,25,0.0,2.3,88,0.00,CLR,OVC,0.00,91.0,WeatherDisplay:10.37,2013-06-20 10:41:00,
2013-06-20 06:46:00,49.5,46.1,30.24,NNE,25,1.6,3.5,88,0.00,CLR,OVC,0.00,105.0,WeatherDisplay:10.37,2013-06-20 10:46:00,
2013-06-20 06:51:00,49.9,46.5,30.24,NNE,25,0.0,1.2,88,0.00,CLR,OVC,0.00,125.0,WeatherDisplay:10.37,2013-06-20 10:51:00,
2013-06-20 06:56:00,50.2,46.5,30.24,NNE,25,1.2,3.5,87,0.00,CLR,OVC,0.00,137.0,WeatherDisplay:10.37,2013-06-20 10:56:00,
2013-06-20 07:01:00,50.7,47.0,30.24,NNE,25,0.0,1.2,87,0.00,CLR,OVC,0.00,151.0,WeatherDisplay:10.37,2013-06-20 11:01:00,
2013-06-20 07:06:00,51.3,47.3,30.24,NNE,25,1.1,2.3,86,0.00,CLR,OVC,0.00,165.0,WeatherDisplay:10.37,2013-06-20 11:06:00,
2013-06-20 07:11:00,51.9,47.5,30.24,NNE,25,0.8,3.5,85,0.00,CLR,OVC,0.00,178.0,WeatherDisplay:10.37,2013-06-20 11:11:00,
2013-06-20 07:16:00,52.5,47.8,30.24,NNE,25,0.0,2.3,84,0.00,CLR,OVC,0.00,193.0,WeatherDisplay:10.37,2013-06-20 11:16:00,
2013-06-20 07:21:00,53.3,48.3,30.24,NNE,25,0.2,1.2,83,0.00,CLR,OVC,0.00,209.0,WeatherDisplay:10.37,2013-06-20 11:21:00,
2013-06-20 07:26:00,54.0,48.3,30.24,NNE,25,0.1,2.3,81,0.00,CLR,OVC,0.00,227.0,WeatherDisplay:10.37,2013-06-20 11:26:00,
2013-06-20 07:31:00,54.6,48.6,30.24,NNE,25,0.0,1.2,80,0.00,CLR,OVC,0.00,248.0,WeatherDisplay:10.37,2013-06-20 11:31:00,
2013-06-20 07:36:00,55.1,48.7,30.24,NNE,25,0.0,1.2,79,0.00,CLR,OVC,0.00,265.0,WeatherDisplay:10.37,2013-06-20 11:36:00,
2013-06-20 07:41:00,55.7,49.3,30.25,NNE,25,0.1,2.3,79,0.00,CLR,OVC,0.00,281.0,WeatherDisplay:10.37,2013-06-20 11:41:00,
2013-06-20 07:46:00,56.2,49.1,30.25,NNE,25,0.0,1.2,77,0.00,CLR,OVC,0.00,295.0,WeatherDisplay:10.37,2013-06-20 11:46:00,
2013-06-20 07:51:00,56.6,49.5,30.24,NNE,25,0.0,1.0,77,0.00,CLR,OVC,0.00,311.0,WeatherDisplay:10.37,2013-06-20 11:51:00,
2013-06-20 07:56:00,57.1,49.6,30.24,NNE,25,0.0,1.2,76,0.00,CLR,OVC,0.00,323.0,WeatherDisplay:10.37,2013-06-20 11:56:00,
2013-06-20 08:01:00,57.8,50.3,30.24,NNE,25,0.5,2.3,76,0.00,CLR,OVC,0.00,343.0,WeatherDisplay:10.37,2013-06-20 12:01:00,
2013-06-20 08:06:00,58.4,50.5,30.24,NNE,25,0.3,1.2,75,0.00,CLR,OVC,0.00,357.0,WeatherDisplay:10.37,2013-06-20 12:06:00,
2013-06-20 08:11:00,58.9,50.6,30.24,NNE,25,0.3,1.2,74,0.00,CLR,OVC,0.00,371.0,WeatherDisplay:10.37,2013-06-20 12:11:00,
2013-06-20 08:16:00,59.5,50.8,30.25,NNE,25,0.0,1.2,73,0.00,CLR,OVC,0.00,385.0,WeatherDisplay:10.37,2013-06-20 12:16:00,
2013-06-20 08:21:00,60.0,50.9,30.25,NNE,25,0.2,1.2,72,0.00,CLR,OVC,0.00,401.0,WeatherDisplay:10.37,2013-06-20 12:21:00,
2013-06-20 08:26:00,60.6,51.5,30.25,NNE,25,0.0,1.2,72,0.00,CLR,OVC,0.00,415.0,WeatherDisplay:10.37,2013-06-20 12:26:00,
2013-06-20 08:31:00,61.3,51.8,30.25,NNE,25,0.0,1.2,71,0.00,CLR,OVC,0.00,431.0,WeatherDisplay:10.37,2013-06-20 12:31:00,
2013-06-20 08:36:00,61.9,52.4,30.25,NNE,25,0.0,1.2,71,0.00,CLR,OVC,0.00,445.0,WeatherDisplay:10.37,2013-06-20 12:36:00,
2013-06-20 08:41:00,62.4,52.5,30.25,NNE,25,0.1,1.2,70,0.00,CLR,OVC,0.00,462.0,WeatherDisplay:10.37,2013-06-20 12:41:00,
2013-06-20 08:46:00,63.0,53.1,30.25,NNE,25,0.1,1.2,70,0.00,CLR,OVC,0.00,476.0,WeatherDisplay:10.37,2013-06-20 12:46:00,
2013-06-20 08:51:00,63.5,53.1,30.25,NNE,25,0.0,0.0,69,0.00,CLR,OVC,0.00,489.0,WeatherDisplay:10.37,2013-06-20 12:51:00,
2013-06-20 08:56:00,64.1,53.3,30.25,NNE,25,0.6,2.3,68,0.00,CLR,OVC,0.00,504.0,WeatherDisplay:10.37,2013-06-20 12:56:00,
2013-06-20 09:01:00,64.5,52.9,30.25,NNE,25,0.2,1.2,66,0.00,CLR,OVC,0.00,519.0,WeatherDisplay:10.37,2013-06-20 13:01:00,
2013-06-20 09:06:00,64.8,53.2,30.25,NNE,25,0.3,2.3,66,0.00,CLR,OVC,0.00,533.0,WeatherDisplay:10.37,2013-06-20 13:06:00,
2013-06-20 09:11:00,65.0,52.5,30.25,NNE,25,0.3,3.5,64,0.00,CLR,OVC,0.00,548.0,WeatherDisplay:10.37,2013-06-20 13:11:00,
2013-06-20 09:16:00,65.4,52.9,30.25,NNE,25,1.1,3.5,64,0.00,CLR,OVC,0.00,563.0,WeatherDisplay:10.37,2013-06-20 13:16:00,
2013-06-20 09:21:00,65.8,52.4,30.25,NNE,25,0.6,3.5,62,0.00,FEW,OVC,0.00,577.0,WeatherDisplay:10.37,2013-06-20 13:21:00,
2013-06-20 09:26:00,66.1,52.7,30.25,NNE,25,0.1,3.5,62,0.00,FEW,OVC,0.00,585.0,WeatherDisplay:10.37,2013-06-20 13:26:00,
2013-06-20 09:31:00,66.6,50.9,30.25,NNE,25,1.8,3.5,57,0.00,FEW,OVC,0.00,599.0,WeatherDisplay:10.37,2013-06-20 13:31:00,
2013-06-20 09:36:00,67.1,52.3,30.25,NNE,25,1.2,4.6,59,0.00,FEW,OVC,0.00,613.0,WeatherDisplay:10.37,2013-06-20 13:36:00,
2013-06-20 09:41:00,67.3,50.1,30.25,NNE,25,0.4,2.3,54,0.00,FEW,OVC,0.00,626.0,WeatherDisplay:10.37,2013-06-20 13:41:00,
2013-06-20 09:46:00,67.7,50.9,30.25,NNE,25,0.8,3.5,55,0.00,FEW,OVC,0.00,640.0,WeatherDisplay:10.37,2013-06-20 13:46:00,
2013-06-20 09:51:00,68.1,50.8,30.25,NNE,25,0.1,1.2,54,0.00,FEW,OVC,0.00,652.0,WeatherDisplay:10.37,2013-06-20 13:51:00,
2013-06-20 09:56:00,68.7,51.4,30.25,NNE,25,2.1,3.5,54,0.00,FEW,OVC,0.00,668.0,WeatherDisplay:10.37,2013-06-20 13:56:00,
2013-06-20 10:01:00,68.9,48.9,30.26,NNE,25,0.8,3.5,49,0.00,FEW,OVC,0.00,680.0,WeatherDisplay:10.37,2013-06-20 14:01:00,
2013-06-20 10:06:00,69.0,48.5,30.25,NNE,25,1.0,4.6,48,0.00,FEW,OVC,0.00,689.0,WeatherDisplay:10.37,2013-06-20 14:06:00,
2013-06-20 10:11:00,69.0,48.5,30.25,NNE,25,0.2,4.6,48,0.00,FEW,OVC,0.00,705.0,WeatherDisplay:10.37,2013-06-20 14:11:00,
2013-06-20 10:16:00,69.5,49.5,30.25,NNE,25,3.1,5.0,49,0.00,FEW,OVC,0.00,719.0,WeatherDisplay:10.37,2013-06-20 14:16:00,
2013-06-20 10:21:00,69.9,49.3,30.25,NNE,25,1.3,3.5,48,0.00,FEW,OVC,0.00,733.0,WeatherDisplay:10.37,2013-06-20 14:21:00,
2013-06-20 10:26:00,70.1,48.4,30.25,NNE,25,0.0,2.3,46,0.00,FEW,OVC,0.00,721.0,WeatherDisplay:10.37,2013-06-20 14:26:00,
2013-06-20 10:31:00,70.5,49.3,30.25,NNE,22,1.7,8.1,47,0.00,FEW,OVC,0.00,729.0,WeatherDisplay:10.37,2013-06-20 14:31:00,
2013-06-20 10:36:00,70.5,48.7,30.25,NNE,22,1.4,3.5,46,0.00,FEW,OVC,0.00,740.0,WeatherDisplay:10.37,2013-06-20 14:36:00,
2013-06-20 10:41:00,70.7,47.7,30.25,NNE,22,0.1,3.5,44,0.00,FEW,OVC,0.00,772.0,WeatherDisplay:10.37,2013-06-20 14:41:00,
2013-06-20 10:46:00,71.2,48.2,30.25,NNE,20,3.0,7.0,44,0.00,FEW,OVC,0.00,782.0,WeatherDisplay:10.37,2013-06-20 14:46:00,
2013-06-20 10:51:00,71.3,48.3,30.25,NNE,20,2.7,7.0,44,0.00,FEW,OVC,0.00,789.0,WeatherDisplay:10.37,2013-06-20 14:51:00,
2013-06-20 10:56:00,71.4,45.8,30.25,NNE,17,0.9,6.9,40,0.00,FEW,OVC,0.00,802.0,WeatherDisplay:10.37,2013-06-20 14:56:00,
2013-06-20 11:01:00,71.5,46.6,30.25,NNE,17,0.1,1.2,41,0.00,CLR,OVC,0.00,809.0,WeatherDisplay:10.37,2013-06-20 15:01:00,
2013-06-20 11:06:00,71.9,48.2,30.25,NNE,17,1.0,3.5,43,0.00,CLR,OVC,0.00,819.0,WeatherDisplay:10.37,2013-06-20 15:06:00,
2013-06-20 11:11:00,72.4,49.3,30.25,North,11,4.9,8.1,44,0.00,CLR,OVC,0.00,826.0,WeatherDisplay:10.37,2013-06-20 15:11:00,
2013-06-20 11:16:00,72.2,47.8,30.25,NNE,12,3.7,7.0,42,0.00,CLR,OVC,0.00,837.0,WeatherDisplay:10.37,2013-06-20 15:16:00,
2013-06-20 11:21:00,72.2,47.8,30.24,NNE,12,2.3,4.6,42,0.00,CLR,OVC,0.00,844.0,WeatherDisplay:10.37,2013-06-20 15:21:00,
2013-06-20 11:26:00,72.2,47.2,30.24,NNE,12,1.0,4.0,41,0.00,CLR,OVC,0.00,853.0,WeatherDisplay:10.37,2013-06-20 15:26:00,
2013-06-20 11:31:00,72.8,48.4,30.25,North,5,1.4,4.6,42,0.00,CLR,OVC,0.00,861.0,WeatherDisplay:10.37,2013-06-20 15:31:00,
2013-06-20 11:36:00,73.0,47.2,30.25,North,355,0.1,4.6,40,0.00,CLR,OVC,0.00,870.0,WeatherDisplay:10.37,2013-06-20 15:36:00,
2013-06-20 11:41:00,72.9,47.2,30.25,North,355,0.1,2.3,40,0.00,CLR,OVC,0.00,877.0,WeatherDisplay:10.37,2013-06-20 15:41:00,
2013-06-20 11:46:00,73.0,47.9,30.25,North,355,1.7,3.5,41,0.00,CLR,OVC,0.00,884.0,WeatherDisplay:10.37,2013-06-20 15:46:00,
2013-06-20 11:51:00,73.0,46.6,30.25,North,355,0.2,2.3,39,0.00,CLR,OVC,0.00,886.0,WeatherDisplay:10.37,2013-06-20 15:51:00,
2013-06-20 11:56:00,73.2,47.4,30.24,North,9,2.6,7.0,40,0.00,CLR,OVC,0.00,893.0,WeatherDisplay:10.37,2013-06-20 15:56:00,
2013-06-20 12:01:00,73.1,45.3,30.24,NNE,15,0.2,3.5,37,0.00,CLR,OVC,0.00,898.0,WeatherDisplay:10.37,2013-06-20 16:01:00,
2013-06-20 12:06:00,73.5,44.2,30.24,NNE,17,0.0,3.5,35,0.00,SCT,OVC,0.00,909.0,WeatherDisplay:10.37,2013-06-20 16:06:00,
2013-06-20 12:11:00,74.4,47.1,30.24,NNE,14,0.9,4.0,38,0.00,SCT,OVC,0.00,877.0,WeatherDisplay:10.37,2013-06-20 16:11:00,
2013-06-20 12:16:00,75.5,48.1,30.24,NNE,15,1.5,2.3,38,0.00,SCT,OVC,0.00,898.0,WeatherDisplay:10.37,2013-06-20 16:16:00,
2013-06-20 12:21:00,75.7,48.3,30.24,North,5,2.1,5.0,38,0.00,SCT,OVC,0.00,886.0,WeatherDisplay:10.37,2013-06-20 16:21:00,
2013-06-20 12:26:00,75.6,47.5,30.24,North,360,0.4,4.6,37,0.00,SCT,OVC,0.00,916.0,WeatherDisplay:10.37,2013-06-20 16:26:00,
2013-06-20 12:31:00,75.8,48.4,30.23,North,360,0.1,2.3,38,0.00,SCT,OVC,0.00,940.0,WeatherDisplay:10.37,2013-06-20 16:31:00,
2013-06-20 12:36:00,76.0,48.6,30.24,North,360,1.6,4.6,38,0.00,SCT,OVC,0.00,942.0,WeatherDisplay:10.37,2013-06-20 16:36:00,
2013-06-20 12:41:00,75.6,47.5,30.24,North,360,0.8,5.8,37,0.00,SCT,OVC,0.00,939.0,WeatherDisplay:10.37,2013-06-20 16:41:00,
2013-06-20 12:46:00,76.0,49.2,30.24,North,360,0.8,2.3,39,0.00,SCT,OVC,0.00,939.0,WeatherDisplay:10.37,2013-06-20 16:46:00,
2013-06-20 12:51:00,76.3,48.1,30.23,North,360,2.3,4.0,37,0.00,SCT,OVC,0.00,937.0,WeatherDisplay:10.37,2013-06-20 16:51:00,
2013-06-20 12:56:00,76.1,49.3,30.23,North,360,4.8,8.0,39,0.00,SCT,OVC,0.00,937.0,WeatherDisplay:10.37,2013-06-20 16:56:00,
2013-06-20 13:01:00,75.9,50.5,30.23,North,9,0.0,2.3,41,0.00,SCT,OVC,0.00,923.0,WeatherDisplay:10.37,2013-06-20 17:01:00,
2013-06-20 13:06:00,76.2,48.0,30.23,North,355,0.1,3.5,37,0.00,SCT,OVC,0.00,942.0,WeatherDisplay:10.37,2013-06-20 17:06:00,
2013-06-20 13:11:00,76.5,50.4,30.23,North,355,2.4,5.0,40,0.00,SCT,OVC,0.00,946.0,WeatherDisplay:10.37,2013-06-20 17:11:00,
2013-06-20 13:16:00,76.1,49.3,30.23,North,9,3.2,7.0,39,0.00,SCT,OVC,0.00,925.0,WeatherDisplay:10.37,2013-06-20 17:16:00,
2013-06-20 13:21:00,75.4,50.1,30.23,North,11,0.6,3.5,41,0.00,SCT,OVC,0.00,942.0,WeatherDisplay:10.37,2013-06-20 17:21:00,
2013-06-20 13:26:00,76.0,49.2,30.23,North,355,1.1,5.0,39,0.00,SCT,OVC,0.00,937.0,WeatherDisplay:10.37,2013-06-20 17:26:00,
2013-06-20 13:31:00,76.5,49.0,30.23,NNW,346,2.0,4.0,38,0.00,SCT,OVC,0.00,947.0,WeatherDisplay:10.37,2013-06-20 17:31:00,
2013-06-20 13:36:00,76.9,47.9,30.23,NNW,346,0.1,3.5,36,0.00,SCT,OVC,0.00,947.0,WeatherDisplay:10.37,2013-06-20 17:36:00,
2013-06-20 13:41:00,77.2,47.4,30.23,NW,319,4.2,8.1,35,0.00,SCT,OVC,0.00,947.0,WeatherDisplay:10.37,2013-06-20 17:41:00,
2013-06-20 13:46:00,77.2,47.4,30.23,NW,319,3.0,5.0,35,0.00,SCT,OVC,0.00,838.0,WeatherDisplay:10.37,2013-06-20 17:46:00,
2013-06-20 13:51:00,77.2,48.2,30.23,NW,319,0.5,2.3,36,0.00,SCT,OVC,0.00,944.0,WeatherDisplay:10.37,2013-06-20 17:51:00,
2013-06-20 13:56:00,77.7,47.9,30.23,WNW,300,4.8,7.0,35,0.00,SCT,OVC,0.00,951.0,WeatherDisplay:10.37,2013-06-20 17:56:00,
2013-06-20 14:01:00,78.0,48.1,30.23,WNW,302,1.8,7.0,35,0.00,SCT,OVC,0.00,947.0,WeatherDisplay:10.37,2013-06-20 18:01:00,
2013-06-20 14:06:00,77.5,48.4,30.23,NW,319,4.1,8.1,36,0.00,SCT,OVC,0.00,933.0,WeatherDisplay:10.37,2013-06-20 18:06:00,
2013-06-20 14:11:00,77.2,47.4,30.23,NNW,329,3.3,6.0,35,0.00,SCT,OVC,0.00,930.0,WeatherDisplay:10.37,2013-06-20 18:11:00,
2013-06-20 14:16:00,77.1,47.3,30.23,NNW,329,2.7,5.0,35,0.00,SCT,OVC,0.00,926.0,WeatherDisplay:10.37,2013-06-20 18:16:00,
2013-06-20 14:21:00,77.4,49.8,30.22,NNW,329,0.1,1.2,38,0.00,SCT,OVC,0.00,916.0,WeatherDisplay:10.37,2013-06-20 18:21:00,
2013-06-20 14:26:00,78.1,49.0,30.22,NNW,329,1.3,5.0,36,0.00,SCT,OVC,0.00,912.0,WeatherDisplay:10.37,2013-06-20 18:26:00,
2013-06-20 14:31:00,78.5,49.3,30.23,NNW,331,4.5,8.0,36,0.00,SCT,OVC,0.00,909.0,WeatherDisplay:10.37,2013-06-20 18:31:00,
2013-06-20 14:36:00,78.5,48.6,30.22,NW,315,1.4,4.6,35,0.00,SCT,OVC,0.00,898.0,WeatherDisplay:10.37,2013-06-20 18:36:00,
2013-06-20 14:41:00,78.6,47.1,30.22,NW,322,1.3,8.1,33,0.00,SCT,OVC,0.00,895.0,WeatherDisplay:10.37,2013-06-20 18:41:00,
2013-06-20 14:46:00,78.6,46.3,30.22,NW,322,1.0,3.5,32,0.00,SCT,OVC,0.00,886.0,WeatherDisplay:10.37,2013-06-20 18:46:00,
2013-06-20 14:51:00,78.9,50.4,30.22,NW,322,0.0,1.2,37,0.00,SCT,OVC,0.00,881.0,WeatherDisplay:10.37,2013-06-20 18:51:00,
2013-06-20 14:56:00,79.7,51.1,30.22,NW,317,1.5,5.0,37,0.00,SCT,OVC,0.00,879.0,WeatherDisplay:10.37,2013-06-20 18:56:00,
2013-06-20 15:01:00,80.2,48.5,30.22,NW,304,1.3,8.1,33,0.00,SCT,OVC,0.00,874.0,WeatherDisplay:10.37,2013-06-20 19:01:00,
2013-06-20 15:06:00,80.4,48.7,30.22,WNW,294,2.6,5.0,33,0.00,SCT,OVC,0.00,863.0,WeatherDisplay:10.37,2013-06-20 19:06:00,
2013-06-20 15:11:00,80.6,47.2,30.22,WNW,292,1.1,6.9,31,0.00,SCT,OVC,0.00,849.0,WeatherDisplay:10.37,2013-06-20 19:11:00,
2013-06-20 15:16:00,80.6,47.2,30.22,WNW,292,1.4,3.5,31,0.00,SCT,OVC,0.00,842.0,WeatherDisplay:10.37,2013-06-20 19:16:00,
2013-06-20 15:21:00,80.1,47.6,30.22,WNW,300,6.1,11.5,32,0.00,SCT,OVC,0.00,837.0,WeatherDisplay:10.37,2013-06-20 19:21:00,
2013-06-20 15:26:00,79.7,46.4,30.22,WNW,301,2.5,5.0,31,0.00,SCT,OVC,0.00,831.0,WeatherDisplay:10.37,2013-06-20 19:26:00,
2013-06-20 15:31:00,79.6,48.8,30.22,West,281,3.9,8.1,34,0.00,SCT,OVC,0.00,830.0,WeatherDisplay:10.37,2013-06-20 19:31:00,
2013-06-20 15:36:00,79.7,44.6,30.23,West,277,2.0,7.0,29,0.00,SCT,OVC,0.00,824.0,WeatherDisplay:10.37,2013-06-20 19:36:00,
2013-06-20 15:41:00,80.0,42.0,30.22,West,269,4.4,7.0,26,0.00,SCT,OVC,0.00,809.0,WeatherDisplay:10.37,2013-06-20 19:41:00,
2013-06-20 15:46:00,80.1,45.0,30.22,West,268,2.9,7.0,29,0.00,SCT,OVC,0.00,793.0,WeatherDisplay:10.37,2013-06-20 19:46:00,
2013-06-20 15:51:00,80.3,46.9,30.22,West,262,3.0,8.1,31,0.00,SCT,OVC,0.00,788.0,WeatherDisplay:10.37,2013-06-20 19:51:00,
2013-06-20 15:56:00,80.2,44.1,30.21,NW,309,4.9,10.4,28,0.00,SCT,OVC,0.00,782.0,WeatherDisplay:10.37,2013-06-20 19:56:00,
2013-06-20 16:01:00,80.0,46.6,30.21,WNW,303,2.1,4.6,31,0.00,SCT,OVC,0.00,768.0,WeatherDisplay:10.37,2013-06-20 20:01:00,
2013-06-20 16:06:00,80.5,49.5,30.21,WNW,302,2.8,8.0,34,0.00,SCT,OVC,0.00,761.0,WeatherDisplay:10.37,2013-06-20 20:06:00,
2013-06-20 16:11:00,80.6,47.2,30.20,WNW,295,2.2,4.6,31,0.00,SCT,OVC,0.00,745.0,WeatherDisplay:10.37,2013-06-20 20:11:00,
2013-06-20 16:16:00,80.7,47.2,30.21,West,276,3.9,9.2,31,0.00,SCT,OVC,0.00,728.0,WeatherDisplay:10.37,2013-06-20 20:16:00,
2013-06-20 16:21:00,80.9,50.7,30.21,West,276,2.4,4.0,35,0.00,SCT,OVC,0.00,724.0,WeatherDisplay:10.37,2013-06-20 20:21:00,
2013-06-20 16:26:00,80.3,49.4,30.21,WNW,296,2.7,7.0,34,0.00,SCT,OVC,0.00,710.0,WeatherDisplay:10.37,2013-06-20 20:26:00,
2013-06-20 16:31:00,80.0,48.3,30.21,West,261,4.9,11.0,33,0.00,SCT,OVC,0.00,694.0,WeatherDisplay:10.37,2013-06-20 20:31:00,
2013-06-20 16:36:00,79.5,47.9,30.21,WSW,250,5.3,8.1,33,0.00,SCT,OVC,0.00,684.0,WeatherDisplay:10.37,2013-06-20 20:36:00,
2013-06-20 16:41:00,79.2,49.9,30.21,West,271,3.2,9.0,36,0.00,SCT,OVC,0.00,673.0,WeatherDisplay:10.37,2013-06-20 20:41:00,
2013-06-20 16:46:00,78.9,49.7,30.21,West,272,4.2,8.1,36,0.00,SCT,OVC,0.00,663.0,WeatherDisplay:10.37,2013-06-20 20:46:00,
2013-06-20 16:51:00,78.8,51.0,30.21,WNW,292,1.7,6.9,38,0.00,SCT,OVC,0.00,645.0,WeatherDisplay:10.37,2013-06-20 20:51:00,
2013-06-20 16:56:00,78.7,50.2,30.22,West,272,3.6,8.1,37,0.00,SCT,OVC,0.00,629.0,WeatherDisplay:10.37,2013-06-20 20:56:00,
2013-06-20 17:01:00,78.6,50.1,30.22,WNW,287,5.2,11.5,37,0.00,SCT,OVC,0.00,617.0,WeatherDisplay:10.37,2013-06-20 21:01:00,
2013-06-20 17:06:00,78.4,51.4,30.22,West,280,2.5,8.1,39,0.00,SCT,OVC,0.00,605.0,WeatherDisplay:10.37,2013-06-20 21:06:00,
2013-06-20 17:11:00,78.4,51.4,30.22,West,269,2.1,9.2,39,0.00,SCT,OVC,0.00,591.0,WeatherDisplay:10.37,2013-06-20 21:11:00,
2013-06-20 17:16:00,78.1,50.4,30.22,WNW,290,3.8,9.2,38,0.00,SCT,OVC,0.00,575.0,WeatherDisplay:10.37,2013-06-20 21:16:00,
2013-06-20 17:21:00,77.9,51.6,30.22,West,279,1.7,6.9,40,0.00,SCT,OVC,0.00,561.0,WeatherDisplay:10.37,2013-06-20 21:21:00,
2013-06-20 17:26:00,77.9,51.6,30.22,West,281,2.1,5.8,40,0.00,SCT,OVC,0.00,550.0,WeatherDisplay:10.37,2013-06-20 21:26:00,
2013-06-20 17:31:00,77.8,50.2,30.22,WNW,290,3.2,11.5,38,0.00,SCT,OVC,0.00,536.0,WeatherDisplay:10.37,2013-06-20 21:31:00,
2013-06-20 17:36:00,77.7,51.5,30.22,West,273,0.4,8.1,40,0.00,SCT,OVC,0.00,524.0,WeatherDisplay:10.37,2013-06-20 21:36:00,
2013-06-20 17:41:00,77.6,50.7,30.22,WNW,286,1.4,9.2,39,0.00,SCT,OVC,0.00,508.0,WeatherDisplay:10.37,2013-06-20 21:41:00,
2013-06-20 17:46:00,77.1,50.2,30.22,WNW,294,3.0,10.4,39,0.00,SCT,OVC,0.00,494.0,WeatherDisplay:10.37,2013-06-20 21:46:00,
2013-06-20 17:51:00,76.7,48.5,30.22,NW,304,4.0,9.2,37,0.00,SCT,OVC,0.00,469.0,WeatherDisplay:10.37,2013-06-20 21:51:00,
2013-06-20 17:56:00,76.5,49.7,30.22,NW,305,0.9,4.6,39,0.00,SCT,OVC,0.00,466.0,WeatherDisplay:10.37,2013-06-20 21:56:00,
2013-06-20 18:01:00,76.6,49.1,30.22,NW,309,2.4,7.0,38,0.00,SCT,OVC,0.00,452.0,WeatherDisplay:10.37,2013-06-20 22:01:00,
2013-06-20 18:06:00,76.5,46.8,30.22,WNW,303,3.4,6.9,35,0.00,SCT,OVC,0.00,439.0,WeatherDisplay:10.37,2013-06-20 22:06:00,
2013-06-20 18:11:00,76.5,49.0,30.21,NW,304,1.7,6.9,38,0.00,SCT,OVC,0.00,422.0,WeatherDisplay:10.37,2013-06-20 22:11:00,
2013-06-20 18:16:00,76.6,47.6,30.21,WNW,300,0.9,3.5,36,0.00,SCT,OVC,0.00,408.0,WeatherDisplay:10.37,2013-06-20 22:16:00,
2013-06-20 18:21:00,76.7,45.4,30.21,WNW,300,2.3,4.6,33,0.00,SCT,OVC,0.00,394.0,WeatherDisplay:10.37,2013-06-20 22:21:00,
2013-06-20 18:26:00,76.9,44.0,30.21,WNW,295,0.8,4.6,31,0.00,SCT,OVC,0.00,378.0,WeatherDisplay:10.37,2013-06-20 22:26:00,
2013-06-20 18:31:00,77.0,43.2,30.21,WNW,290,1.6,4.6,30,0.00,SCT,OVC,0.00,364.0,WeatherDisplay:10.37,2013-06-20 22:31:00,
2013-06-20 18:36:00,77.1,43.3,30.21,WNW,297,0.4,3.5,30,0.00,SCT,OVC,0.00,350.0,WeatherDisplay:10.37,2013-06-20 22:36:00,
2013-06-20 18:41:00,77.1,50.2,30.21,WNW,297,0.2,3.0,39,0.00,SCT,OVC,0.00,332.0,WeatherDisplay:10.37,2013-06-20 22:41:00,
2013-06-20 18:46:00,76.6,50.5,30.21,NW,313,4.4,6.9,40,0.00,SCT,OVC,0.00,316.0,WeatherDisplay:10.37,2013-06-20 22:46:00,
2013-06-20 18:51:00,75.6,50.9,30.21,NW,318,3.6,5.0,42,0.00,SCT,OVC,0.00,287.0,WeatherDisplay:10.37,2013-06-20 22:51:00,
2013-06-20 18:56:00,74.6,50.6,30.21,North,11,1.8,8.1,43,0.00,SCT,OVC,0.00,287.0,WeatherDisplay:10.37,2013-06-20 22:56:00,
2013-06-20 19:01:00,73.9,50.6,30.21,NNE,17,2.6,4.6,44,0.00,SCT,OVC,0.00,265.0,WeatherDisplay:10.37,2013-06-20 23:01:00,
2013-06-20 19:06:00,73.6,50.9,30.21,NNE,17,3.7,7.0,45,0.00,SCT,OVC,0.00,258.0,WeatherDisplay:10.37,2013-06-20 23:06:00,
2013-06-20 19:11:00,73.5,51.4,30.21,NNE,18,2.1,4.6,46,0.00,SCT,OVC,0.00,244.0,WeatherDisplay:10.37,2013-06-20 23:11:00,
2013-06-20 19:16:00,73.3,51.3,30.21,NNE,18,1.6,4.6,46,0.00,SCT,OVC,0.00,225.0,WeatherDisplay:10.37,2013-06-20 23:16:00,
2013-06-20 19:21:00,73.1,51.1,30.21,NNE,32,3.9,6.0,46,0.00,SCT,OVC,0.00,211.0,WeatherDisplay:10.37,2013-06-20 23:21:00,
2013-06-20 19:26:00,72.9,50.3,30.21,NE,34,4.4,7.0,45,0.00,SCT,OVC,0.00,195.0,WeatherDisplay:10.37,2013-06-20 23:26:00,
2013-06-20 19:31:00,72.5,50.5,30.21,NE,38,3.0,8.1,46,0.00,SCT,OVC,0.00,178.0,WeatherDisplay:10.37,2013-06-20 23:31:00,
2013-06-20 19:36:00,72.2,50.3,30.21,NE,38,4.0,6.0,46,0.00,SCT,OVC,0.00,162.0,WeatherDisplay:10.37,2013-06-20 23:36:00,
2013-06-20 19:41:00,72.0,51.2,30.21,NE,36,2.5,5.0,48,0.00,SCT,OVC,0.00,142.0,WeatherDisplay:10.37,2013-06-20 23:41:00,
2013-06-20 19:46:00,71.8,50.5,30.21,NE,37,2.0,5.8,47,0.00,SCT,OVC,0.00,125.0,WeatherDisplay:10.37,2013-06-20 23:46:00,
2013-06-20 19:51:00,71.6,50.9,30.21,NE,37,2.3,4.6,48,0.00,SCT,OVC,0.00,107.0,WeatherDisplay:10.37,2013-06-20 23:51:00,
2013-06-20 19:56:00,71.5,50.8,30.21,NE,37,2.6,5.0,48,0.00,SCT,OVC,0.00,95.0,WeatherDisplay:10.37,2013-06-20 23:56:00,
2013-06-20 20:01:00,71.3,51.1,30.21,NE,38,0.9,3.5,49,0.00,SCT,OVC,0.00,77.0,WeatherDisplay:10.37,2013-06-21 00:01:00,
2013-06-20 20:06:00,71.1,51.0,30.21,NE,38,0.7,3.5,49,0.00,SCT,OVC,0.00,67.0,WeatherDisplay:10.37,2013-06-21 00:06:00,
2013-06-20 20:11:00,70.9,50.8,30.22,NE,38,0.5,2.3,49,0.00,SCT,OVC,0.00,56.0,WeatherDisplay:10.37,2013-06-21 00:11:00,
2013-06-20 20:16:00,70.8,51.2,30.22,NE,38,0.2,3.5,50,0.00,SCT,OVC,0.00,21.0,WeatherDisplay:10.37,2013-06-21 00:16:00,
2013-06-20 20:21:00,70.5,51.0,30.21,NE,38,0.0,1.2,50,0.00,SCT,OVC,0.00,32.0,WeatherDisplay:10.37,2013-06-21 00:21:00,
2013-06-20 20:26:00,70.3,51.8,30.21,NE,38,0.0,0.0,52,0.00,SCT,OVC,0.00,23.0,WeatherDisplay:10.37,2013-06-21 00:26:00,
2013-06-20 20:31:00,70.2,51.7,30.21,NE,38,0.0,0.0,52,0.00,SCT,OVC,0.00,19.0,WeatherDisplay:10.37,2013-06-21 00:31:00,
2013-06-20 20:36:00,70.0,52.1,30.21,NE,38,0.0,0.0,53,0.00,SCT,OVC,0.00,14.0,WeatherDisplay:10.37,2013-06-21 00:36:00,
2013-06-20 20:41:00,69.8,51.9,30.21,NE,38,0.0,0.0,53,0.00,SCT,OVC,0.00,12.0,WeatherDisplay:10.37,2013-06-21 00:41:00,
2013-06-20 20:46:00,69.7,51.8,30.21,NE,38,0.0,0.0,53,0.00,SCT,OVC,0.00,11.0,WeatherDisplay:10.37,2013-06-21 00:46:00,
2013-06-20 20:51:00,69.3,51.9,30.21,NE,38,0.0,1.2,54,0.00,SCT,OVC,0.00,7.0,WeatherDisplay:10.37,2013-06-21 00:51:00,
2013-06-20 20:56:00,69.0,52.2,30.21,NE,38,0.0,0.0,55,0.00,SCT,OVC,0.00,5.0,WeatherDisplay:10.37,2013-06-21 00:56:00,
2013-06-20 21:01:00,68.7,53.3,30.21,NE,38,0.0,0.0,58,0.00,SCT,OVC,0.00,0.0,WeatherDisplay:10.37,2013-06-21 01:01:00,
2013-06-20 21:06:00,68.3,53.4,30.22,NE,38,0.0,0.0,59,0.00,SCT,OVC,0.00,0.0,WeatherDisplay:10.37,2013-06-21 01:06:00,
2013-06-20 21:11:00,67.9,53.0,30.22,NE,38,0.0,0.0,59,0.00,SCT,OVC,0.00,0.0,WeatherDisplay:10.37,2013-06-21 01:11:00,
2013-06-20 21:16:00,67.4,52.6,30.22,NE,38,0.0,0.0,59,0.00,SCT,OVC,0.00,0.0,WeatherDisplay:10.37,2013-06-21 01:16:00,
2013-06-20 21:21:00,66.8,52.5,30.23,NE,38,0.0,0.0,60,0.00,SCT,OVC,0.00,0.0,WeatherDisplay:10.37,2013-06-21 01:21:00,
2013-06-20 21:26:00,66.3,52.9,30.22,NE,38,0.0,0.0,62,0.00,SCT,OVC,0.00,0.0,WeatherDisplay:10.37,2013-06-21 01:26:00,
2013-06-20 21:31:00,65.6,53.1,30.23,NE,38,0.0,0.0,64,0.00,SCT,OVC,0.00,0.0,WeatherDisplay:10.37,2013-06-21 01:31:00,
2013-06-20 21:36:00,64.9,52.8,30.23,NE,38,0.0,0.0,65,0.00,SCT,OVC,0.00,0.0,WeatherDisplay:10.37,2013-06-21 01:36:00,
2013-06-20 21:41:00,64.3,53.1,30.23,NE,38,0.0,0.0,67,0.00,SCT,OVC,0.00,0.0,WeatherDisplay:10.37,2013-06-21 01:41:00,
2013-06-20 21:46:00,63.4,52.7,30.23,NE,38,0.0,0.0,68,0.00,SCT,OVC,0.00,0.0,WeatherDisplay:10.37,2013-06-21 01:46:00,
2013-06-20 21:51:00,62.8,52.5,30.24,NE,38,0.0,0.0,69,0.00,SCT,OVC,0.00,0.0,WeatherDisplay:10.37,2013-06-21 01:51:00,
2013-06-20 21:56:00,62.2,52.7,30.24,NE,38,0.0,0.0,71,0.00,SCT,OVC,0.00,0.0,WeatherDisplay:10.37,2013-06-21 01:56:00,
2013-06-20 22:01:00,61.6,52.9,30.23,NE,38,0.0,0.0,73,0.00,SCT,OVC,0.00,0.0,WeatherDisplay:10.37,2013-06-21 02:01:00,
2013-06-20 22:06:00,61.1,52.7,30.24,NE,38,0.0,0.0,74,0.00,SCT,OVC,0.00,0.0,WeatherDisplay:10.37,2013-06-21 02:06:00,
2013-06-20 22:11:00,60.6,52.6,30.24,NE,38,0.0,0.0,75,0.00,SCT,OVC,0.00,0.0,WeatherDisplay:10.37,2013-06-21 02:11:00,
2013-06-20 22:16:00,60.1,52.1,30.24,NE,38,0.0,1.2,75,0.00,SCT,OVC,0.00,0.0,WeatherDisplay:10.37,2013-06-21 02:16:00,
2013-06-20 22:21:00,59.7,52.1,30.24,NE,38,0.0,0.0,76,0.00,SCT,OVC,0.00,0.0,WeatherDisplay:10.37,2013-06-21 02:21:00,
2013-06-20 22:26:00,59.3,52.1,30.24,NE,38,0.0,1.2,77,0.00,SCT,OVC,0.00,0.0,WeatherDisplay:10.37,2013-06-21 02:26:00,
2013-06-20 22:31:00,59.0,52.1,30.24,NE,38,0.0,0.0,78,0.00,SCT,OVC,0.00,0.0,WeatherDisplay:10.37,2013-06-21 02:31:00,
2013-06-20 22:36:00,58.7,51.9,30.24,NE,38,0.0,0.0,78,0.00,SCT,OVC,0.00,0.0,WeatherDisplay:10.37,2013-06-21 02:36:00,
2013-06-20 22:41:00,58.4,51.9,30.24,NE,38,0.1,1.2,79,0.00,SCT,OVC,0.00,0.0,WeatherDisplay:10.37,2013-06-21 02:41:00,
2013-06-20 22:46:00,58.1,51.6,30.24,NE,38,0.0,0.0,79,0.00,SCT,OVC,0.00,0.0,WeatherDisplay:10.37,2013-06-21 02:46:00,
2013-06-20 22:51:00,57.9,51.1,30.24,NE,38,0.0,0.0,78,0.00,SCT,OVC,0.00,0.0,WeatherDisplay:10.37,2013-06-21 02:51:00,
2013-06-20 22:56:00,57.6,50.8,30.23,NE,38,0.0,1.2,78,0.00,SCT,OVC,0.00,0.0,WeatherDisplay:10.37,2013-06-21 02:56:00,
2013-06-20 23:01:00,57.5,50.7,30.23,NE,38,0.0,1.2,78,0.00,SCT,OVC,0.00,0.0,WeatherDisplay:10.37,2013-06-21 03:01:00,
2013-06-20 23:06:00,57.5,50.7,30.24,NE,38,0.0,1.2,78,0.00,FEW,OVC,0.00,0.0,WeatherDisplay:10.37,2013-06-21 03:06:00,
2013-06-20 23:11:00,57.6,50.8,30.24,NE,38,0.0,0.0,78,0.00,FEW,OVC,0.00,0.0,WeatherDisplay:10.37,2013-06-21 03:11:00,
2013-06-20 23:16:00,57.6,50.4,30.24,NE,38,0.0,0.0,77,0.00,FEW,OVC,0.00,0.0,WeatherDisplay:10.37,2013-06-21 03:16:00,
2013-06-20 23:21:00,57.7,50.5,30.24,NE,38,0.0,0.0,77,0.00,FEW,OVC,0.00,0.0,WeatherDisplay:10.37,2013-06-21 03:21:00,
2013-06-20 23:26:00,57.7,50.9,30.24,NE,38,0.0,1.2,78,0.00,FEW,OVC,0.00,0.0,WeatherDisplay:10.37,2013-06-21 03:26:00,
2013-06-20 23:31:00,57.8,51.0,30.23,NE,41,1.9,4.0,78,0.00,FEW,OVC,0.00,0.0,WeatherDisplay:10.37,2013-06-21 03:31:00,
2013-06-20 23:36:00,57.8,50.6,30.23,NE,53,0.9,5.0,77,0.00,FEW,OVC,0.00,0.0,WeatherDisplay:10.37,2013-06-21 03:36:00,
2013-06-20 23:41:00,58.0,50.8,30.23,ENE,75,2.7,8.1,77,0.00,FEW,OVC,0.00,0.0,WeatherDisplay:10.37,2013-06-21 03:41:00,
2013-06-20 23:46:00,58.3,50.8,30.23,East,91,3.1,8.1,76,0.00,FEW,OVC,0.00,0.0,WeatherDisplay:10.37,2013-06-21 03:46:00,
2013-06-20 23:51:00,58.7,50.8,30.23,SE,127,3.6,10.0,75,0.00,FEW,OVC,0.00,0.0,WeatherDisplay:10.37,2013-06-21 03:51:00,
2013-06-20 23:56:00,59.1,50.8,30.23,SE,140,2.3,8.1,74,0.00,FEW,OVC,0.00,0.0,WeatherDisplay:10.37,2013-06-21 03:56:00,